Location: Cedar Brake
(32.2526°N, 97.8459°W)
Time: 19:08:32
(UTC+00:00)

ADEOS II - Pass Details

Date: 22 April 2026
Orbit: 793 x 795 km, 98.8° (Epoch: 21 May)

Event Time Altitude Azimuth Distance (km) Brightness Sun altitude
Rises 08:52:49 0° 23° (NNE) 3,297 6.2 -33.9°
Reaches altitude 10° 08:55:19 10° 31° (NNE) 2,364 5.3 -33.5°
Enters shadow 08:59:45 37° 88° (E) 1,216 3.2 -32.9°
